User: anonymous   Login
Location: Newark
(51.4095°N, 2.7311°W)
Time: 07:21:08
(UTC+00:00)
Language:

Hubble Space Telescope - Orbit

View from above orbital plane
View from above orbital plane
View from above satellite
View from above satellite

Ground track
Ground track

The orbit data is extracted from the following two-line orbital elements,

1 20580U 90037B   19237.93519325 +.00000315 +00000-0 +81943-5 0  9992
2 20580 028.4694 120.6698 0002809 138.0688 349.1901 15.09256651411121
Epoch (UTC): 25 August 2019 22:26:40
Eccentricity: 0.0002809
inclination: 28.4694°
perigee height: 536 km
apogee height: 540 km
right ascension of ascending node: 120.6698°
argument of perigee: 138.0688°
revolutions per day: 15.09256651
mean anomaly at epoch: 349.1901°
orbit number at epoch: 41112

The dashed part of the orbit path shows where the satellite is in the earth's shadow,  

DLR